TimeMST,TemperatureF,Dew PointF,Humidity,Sea Level PressureIn,VisibilityMPH,Wind Direction,Wind SpeedMPH,Gust SpeedMPH,PrecipitationIn,Events,Conditions,WindDirDegrees,DateUTC
12:53 AM,18.0,7.0,62,30.22,10.0,Calm,Calm,-,N/A,,Clear,0,2013-01-05 07:53:00
1:53 AM,24.1,10.0,55,30.21,10.0,West,9.2,-,N/A,,Clear,280,2013-01-05 08:53:00
2:53 AM,21.0,10.9,65,30.23,10.0,West,10.4,-,N/A,,Clear,280,2013-01-05 09:53:00
3:53 AM,26.1,12.0,55,30.25,10.0,WNW,8.1,-,N/A,,Clear,300,2013-01-05 10:53:00
4:53 AM,19.0,10.0,68,30.30,10.0,NNE,3.5,-,N/A,,Clear,20,2013-01-05 11:53:00
5:53 AM,25.0,15.1,66,30.30,10.0,NW,11.5,-,N/A,,Scattered Clouds,310,2013-01-05 12:53:00
6:53 AM,25.0,15.1,66,30.33,10.0,WNW,9.2,-,N/A,,Partly Cloudy,300,2013-01-05 13:53:00
7:53 AM,26.1,15.1,63,30.35,10.0,North,4.6,-,N/A,,Clear,350,2013-01-05 14:53:00
8:53 AM,25.0,15.1,66,30.37,10.0,WNW,6.9,-,N/A,,Clear,290,2013-01-05 15:53:00
9:53 AM,28.9,18.0,64,30.38,10.0,Calm,Calm,-,N/A,,Clear,0,2013-01-05 16:53:00
10:53 AM,32.0,19.0,59,30.35,10.0,Calm,Calm,-,N/A,,Clear,0,2013-01-05 17:53:00
11:53 AM,36.0,21.0,55,30.32,10.0,NNW,12.7,-,N/A,,Clear,330,2013-01-05 18:53:00
12:53 PM,37.9,21.9,53,30.30,10.0,NNW,6.9,-,N/A,,Clear,340,2013-01-05 19:53:00
1:53 PM,39.9,21.0,47,30.26,10.0,NNW,3.5,-,N/A,,Clear,330,2013-01-05 20:53:00
2:53 PM,37.9,21.0,51,30.28,10.0,Calm,Calm,-,N/A,,Clear,0,2013-01-05 21:53:00
3:53 PM,37.0,19.9,50,30.29,10.0,Calm,Calm,-,N/A,,Clear,0,2013-01-05 22:53:00
4:53 PM,24.1,17.1,75,30.35,10.0,SW,5.8,-,N/A,,Clear,230,2013-01-05 23:53:00
5:53 PM,21.9,16.0,78,30.33,10.0,South,8.1,-,N/A,,Clear,180,2013-01-06 00:53:00
6:53 PM,19.0,12.9,77,30.33,10.0,South,5.8,-,N/A,,Clear,190,2013-01-06 01:53:00
7:53 PM,15.1,9.0,77,30.33,10.0,SSW,3.5,-,N/A,,Clear,200,2013-01-06 02:53:00
8:53 PM,17.1,10.0,74,30.32,10.0,SSW,4.6,-,N/A,,Clear,210,2013-01-06 03:53:00
9:53 PM,12.9,7.0,77,30.30,10.0,South,3.5,-,N/A,,Clear,190,2013-01-06 04:53:00
10:53 PM,19.0,10.0,68,30.25,10.0,Calm,Calm,-,N/A,,Clear,0,2013-01-06 05:53:00
11:53 PM,19.0,8.1,62,30.22,10.0,Calm,Calm,-,N/A,,Clear,0,2013-01-06 06:53:00